This demonstration page uses our WeatherBlox Daily Observations layout. Learn more.

Left ArrowRight Arrow

Hourly Observations for October 17, 2016

Temp ( °F °C ) Dew Point ( °F °C ) Humidity (%) Winds ( mph kmh ) Pressure ( in mb ) Visibility ( mi km ) Precip ( " mm )
12:15 am 00:15 Clear 55 13 48 9 77 77 N 3 6 29.59 1002 10 16 0.00 0.00
12:35 am 00:35 Clear 54 12 48 9 82 82 N 3 6 29.59 1002 10 16 0.00 0.00
12:55 am 00:55 Clear 57 14 52 11 82 82 Calm 29.56 1001 10 16 0.00 0.00
1:15 am 01:15 Clear 55 13 48 9 77 77 N 3 6 29.56 1001 10 16 0.00 0.00
1:35 am 01:35 Clear 57 14 52 11 82 82 N 7 11 29.53 1000 10 16 0.00 0.00
1:55 am 01:55 Clear 55 13 48 9 77 77 N 6 9 29.53 1000 10 16 0.00 0.00
2:15 am 02:15 Clear 54 12 46 8 77 77 ESE 6 9 29.50 999 10 16 0.00 0.00
2:35 am 02:35 Clear 54 12 48 9 82 82 Calm 29.50 999 10 16 0.00 0.00
2:55 am 02:55 Clear 52 11 46 8 82 82 ESE 3 6 29.53 1000 10 16 0.00 0.00
3:15 am 03:15 Clear 48 9 45 7 87 87 E 3 6 29.53 1000 10 16 0.00 0.00
3:35 am 03:35 Clear 50 10 46 8 88 88 NNE 8 13 29.50 999 10 16 0.00 0.00
3:55 am 03:55 Clear 54 12 48 9 82 82 N 8 13 29.47 998 10 16 0.00 0.00
4:15 am 04:15 Clear 52 11 46 8 82 82 N 8 13 29.47 998 9 14 0.00 0.00
4:35 am 04:35 Clear 55 13 50 10 82 82 N 5 7 29.47 998 10 16 0.00 0.00
4:55 am 04:55 Clear 54 12 48 9 82 82 N 6 9 29.47 998 10 16 0.00 0.00
5:15 am 05:15 Clear 54 12 48 9 82 82 N 6 9 29.47 998 10 16 0.00 0.00
5:35 am 05:35 Clear 54 12 48 9 82 82 N 7 11 29.47 998 10 16 0.00 0.00
5:55 am 05:55 Clear 54 12 52 11 94 94 NNW 6 9 29.44 997 10 16 0.00 0.00
6:15 am 06:15 Clear 54 12 48 9 82 82 NW 7 11 29.44 997 9 14 0.00 0.00
6:35 am 06:35 Clear 54 12 48 9 82 82 NNW 6 9 29.44 997 10 16 0.00 0.00
6:55 am 06:55 Mostly Clear 52 11 48 9 88 88 NNW 8 13 29.44 997 10 16 0.00 0.00
7:15 am 07:15 Mostly Cloudy 52 11 48 9 88 88 NW 7 11 29.44 997 10 16 0.00 0.00
7:35 am 07:35 Cloudy 54 12 46 8 77 77 NNW 6 9 29.44 997 10 16 0.00 0.00
7:55 am 07:55 Cloudy 52 11 46 8 82 82 NW 6 9 29.41 996 10 16 0.00 0.00
8:15 am 08:15 Cloudy 54 12 46 8 77 77 NNW 3 6 29.41 996 10 16 0.00 0.00
8:35 am 08:35 Cloudy 54 12 46 8 77 77 NW 3 6 29.41 996 10 16 0.00 0.00
8:55 am 08:55 Cloudy 54 12 48 9 82 82 NNW 6 9 29.41 996 10 16 0.00 0.00
9:15 am 09:15 Cloudy 54 12 48 9 82 82 NNW 7 11 29.41 996 3 5 0.00 0.00
9:35 am 09:35 Cloudy 54 12 48 9 82 82 NW 7 11 29.41 996 3 5 0.00 0.00
9:55 am 09:55 Cloudy 54 12 48 9 82 82 NW 7 11 29.41 996 3 4 0.00 0.00
10:15 am 10:15 Cloudy 54 12 50 10 88 88 NNW 7 11 29.41 996 2 3 0.00 0.00
10:35 am 10:35 Cloudy 55 13 48 9 77 77 NNW 5 7 29.41 996 10 16 0.00 0.00
10:55 am 10:55 Cloudy 57 14 48 9 72 72 N 7 11 29.38 995 10 16 0.00 0.00
11:15 am 11:15 Cloudy 59 15 50 10 72 72 WNW 3 6 29.38 995 10 16 0.00 0.00
11:35 am 11:35 Mostly Cloudy 61 16 50 10 68 68 W 3 6 29.38 995 10 16 0.00 0.00
11:55 am 11:55 Mostly Sunny 63 17 52 11 68 68 Calm 29.38 995 10 16 0.00 0.00
12:15 pm 12:15 Sunny 64 18 52 11 64 64 WSW 5 7 29.35 994 10 16 0.00 0.00
12:35 pm 12:35 Sunny 66 19 52 11 60 60 W 5 7 29.35 994 10 16 0.00 0.00
12:55 pm 12:55 Sunny 68 20 54 12 60 60 WSW 3 6 29.35 994 10 16 0.00 0.00
1:15 pm 13:15 Sunny 70 21 54 12 57 57 Calm 29.35 994 10 16 0.00 0.00
1:35 pm 13:35 Sunny 72 22 55 13 57 57 SW 10 17 29.29 992 10 16 0.00 0.00
1:55 pm 13:55 Sunny 73 23 55 13 53 53 SW 12 19 29.29 992 10 16 0.00 0.00
2:15 pm 14:15 Sunny 75 24 54 12 47 47 SW 8 13 29.29 992 10 16 0.00 0.00
2:35 pm 14:35 Sunny 75 24 54 12 47 47 W 9 15 29.29 992 10 16 0.00 0.00
2:55 pm 14:55 Sunny 79 26 52 11 39 39 W 10 17 29.26 991 10 16 0.00 0.00
3:15 pm 15:15 Sunny 79 26 50 10 37 37 W 12 19 29.26 991 10 16 0.00 0.00
3:35 pm 15:35 Sunny 81 27 48 9 32 32 W 13 20 29.29 992 10 16 0.00 0.00
3:55 pm 15:55 Sunny 82 28 43 6 25 25 WNW 15 24 29.29 992 10 16 0.00 0.00
4:15 pm 16:15 Sunny 82 28 39 4 21 21 WNW 14 22 29.29 992 10 16 0.00 0.00
4:35 pm 16:35 Sunny 82 28 37 3 20 20 W 14 22 29.29 992 10 16 0.00 0.00
4:55 pm 16:55 Sunny 82 28 37 3 20 20 W 13 20 29.32 993 10 16 0.00 0.00
5:15 pm 17:15 Sunny 82 28 37 3 20 20 W 12 19 29.32 993 10 16 0.00 0.00
5:35 pm 17:35 Sunny 82 28 37 3 20 20 W 12 19 29.32 993 10 16 0.00 0.00
5:55 pm 17:55 Sunny 81 27 37 3 21 21 W 8 13 29.35 994 10 16 0.00 0.00
6:15 pm 18:15 Sunny 79 26 37 3 23 23 W 7 11 29.38 995 9 14 0.00 0.00
6:35 pm 18:35 Sunny 79 26 37 3 23 23 W 10 17 29.38 995 10 16 0.00 0.00
6:55 pm 18:55 Clear 73 23 37 3 27 27 W 13 20 29.38 995 10 16 0.00 0.00
7:15 pm 19:15 Clear 73 23 34 1 23 23 WNW 13 20 29.41 996 10 16 0.00 0.00
7:35 pm 19:35 Clear 73 23 36 2 25 25 WNW 20 31 29.44 997 10 16 0.00 0.00
7:55 pm 19:55 Clear 72 22 36 2 27 27 WNW 15 24 29.50 999 10 16 0.00 0.00
8:15 pm 20:15 Clear 70 21 36 2 29 29 WNW 12 19 29.50 999 10 16 0.00 0.00
8:35 pm 20:35 Clear 68 20 36 2 30 30 W 9 15 29.50 999 10 16 0.00 0.00
8:55 pm 20:55 Clear 66 19 36 2 32 32 W 12 19 29.56 1001 10 16 0.00 0.00
9:15 pm 21:15 Clear 64 18 36 2 34 34 W 13 20 29.56 1001 10 16 0.00 0.00
9:35 pm 21:35 Clear 66 19 36 2 32 32 W 14 22 29.56 1001 10 16 0.00 0.00
9:55 pm 21:55 Clear 64 18 34 1 32 32 WNW 18 30 29.59 1002 10 16 0.00 0.00
10:15 pm 22:15 Clear 63 17 32 0 32 32 WNW 13 20 29.62 1003 10 16 0.00 0.00
10:35 pm 22:35 Clear 63 17 30 -1 30 30 WNW 14 22 29.59 1002 10 16 0.00 0.00
10:55 pm 22:55 Clear 61 16 30 -1 31 31 WNW 10 17 29.65 1004 10 16 0.00 0.00
11:15 pm 23:15 Clear 59 15 30 -1 34 34 WNW 12 19 29.65 1004 10 16 0.00 0.00
11:35 pm 23:35 Clear 57 14 30 -1 36 36 WNW 12 19 29.68 1005 10 16 0.00 0.00
11:55 pm 23:55 Clear 57 14 30 -1 36 36 WNW 9 15 29.68 1005 10 16 0.00 0.00

Powered by AerisWeather